GPS BIIR-18M

Last updated on Tue Sep 22 2026 00:03:02 GMT+0000 (Coordinated Universal Time)

1 32384U 07062A 26264.51119546 .00000025 00000+0 00000+0 0 9992 2 32384 54.9615 270.2721 0035943 170.2356 0.5641 2.00565416137445
UTC large
Height (km)
Speed (km/s)
/
Latitude / Longitude
Inclination (degrees)
Orbital Period (minutes)
Azimuth
Elevation
Range (km)
Doppler Factor

Next 0 passes for location: London (51.5072 / 0.1276)

No passes found over London.
GPS BIIR-18M